This demonstration page uses our WeatherBlox Daily Observations layout. Learn more.

Left ArrowRight Arrow

47.50024, -111.30081

Hourly Observations for May 19, 2022

Temp ( °F °C ) Dew Point ( °F °C ) Humidity (%) Winds ( mph kmh ) Pressure ( in mb ) Visibility ( mi km ) Precip ( " mm )
12:53 am 00:53 Clear 47 8.3 27 -2.8 46 46 W 21 33 29.66 1004 10 16 0.00 0.00
1:53 am 01:53 Clear 44 6.7 27 -2.8 51 51 W 23 37 29.65 1004 10 16 0.00 0.00
2:53 am 02:53 Clear 41 5 27 -2.8 57 57 W 22 35 29.64 1004 10 16 0.00 0.00
3:53 am 03:53 Clear 40 4.4 27 -2.8 60 60 W 23 37 29.62 1003 10 16 0.00 0.00
4:53 am 04:53 Clear 38 3.3 27 -2.8 65 65 W 20 31 29.64 1004 10 16 0.00 0.00
5:53 am 05:53 Sunny 37 2.8 25 -3.9 62 62 WSW 17 28 29.64 1004 10 16 0.00 0.00
6:53 am 06:53 Sunny 40 4.4 25 -3.9 55 55 WSW 20 31 29.63 1003 10 16 0.00 0.00
7:53 am 07:53 Sunny 43 6.1 24 -4.4 47 47 WSW 24 39 29.62 1003 10 16 0.00 0.00
8:53 am 08:53 Mostly Sunny 45 7.2 22 -5.6 40 40 WSW 25 41 29.62 1003 10 16 0.00 0.00
9:53 am 09:53 Cloudy 47 8.3 16 -8.9 29 29 W 28 44 29.62 1003 10 16 0.00 0.00
10:53 am 10:53 Cloudy 48 8.9 15 -9.4 27 27 W 35 56 29.61 1003 10 16 0.00 0.00
11:53 am 11:53 Cloudy 47 8.3 17 -8.3 30 30 W 31 50 29.63 1003 10 16 0.00 0.00
12:53 pm 12:53 Mostly Cloudy 48 8.9 17 -8.3 29 29 W 29 46 29.62 1003 10 16 0.00 0.00
1:53 pm 13:53 Mostly Cloudy 52 11.1 19 -7.2 27 27 W 25 41 29.62 1003 10 16 0.00 0.00
2:53 pm 14:53 Mostly Cloudy 52 11.1 17 -8.3 25 25 W 33 54 29.62 1003 10 16 0.00 0.00
3:53 pm 15:53 Cloudy 48 8.9 18 -7.8 30 30 WNW 30 48 29.67 1005 10 16 0.00 0.00
4:53 pm 16:53 Cloudy 47 8.3 21 -6.1 36 36 W 23 37 29.68 1005 10 16 0.00 0.00
5:53 pm 17:53 Cloudy 45 7.2 31 -0.6 58 58 NNW 24 39 29.73 1007 10 16 0.00 0.00
6:50 pm 18:50 Cloudy with Light Rain 39 4 34 1 81 81 WNW 18 30 29.75 1008 10 16 0.00 0.00
6:53 pm 18:53 Cloudy with Light Rain 40 4.4 34 1.1 79 79 WNW 22 35 29.77 1008 10 16 0.00 0.00
7:53 pm 19:53 Cloudy with Rain 37 2.8 34 1.1 89 89 NW 23 37 29.81 1010 3 5 0.04 1.02
8:10 pm 20:10 Cloudy with Rain 36 2.2 34 1.1 93 93 NW 22 35 29.85 1011 5 8 0.03 0.76
8:20 pm 20:20 Cloudy with Light Snow 34 1.1 32 0 92 92 NW 17 28 29.86 1011 2 3 0.05 1.27
8:23 pm 20:23 Cloudy with Light Snow 33 0.6 32 0 96 96 NW 17 28 29.87 1012 2 3 0.06 1.52
8:30 pm 20:30 Cloudy with Light Snow 33 0.6 31 -0.6 92 92 NW 16 26 29.88 1012 1 2 0.08 2.03
8:36 pm 20:36 Cloudy with Light Snow 33 0.6 31 -0.6 92 92 NW 14 22 29.88 1012 2 3 0.09 2.29
8:45 pm 20:45 Cloudy with Light Snow 33 0.6 31 -0.6 92 92 NW 15 24 29.88 1012 2 3 0.10 2.54
8:53 pm 20:53 Cloudy with Light Snow 33 0.6 32 0 96 96 NW 13 20 29.85 1011 2 3 0.10 2.54
9:10 pm 21:10 Cloudy with Light Snow 34 1.1 32 0 92 92 WNW 15 24 29.88 1012 7 11 0.02 0.51
9:21 pm 21:21 Cloudy with Rain 34 1.1 33 0.6 97 97 NW 17 28 29.88 1012 7 11 0.03 0.76
9:53 pm 21:53 Cloudy with Light Rain 36 2.2 34 1.1 93 93 NNW 22 35 29.87 1011 6 10 0.09 2.29
10:08 pm 22:08 Cloudy with Light Rain 36 2.2 34 1.1 93 93 NNW 24 39 29.91 1013 10 16 0.01 0.25
10:37 pm 22:37 Cloudy with Light Snow 33 0.6 31 -0.6 92 92 N 17 28 29.97 1015 2 3 0.02 0.51
10:41 pm 22:41 Cloudy with Light Snow 33 0.6 31 -0.6 92 92 N 18 30 29.97 1015 2 3 0.02 0.51
10:50 pm 22:50 Cloudy with Light Snow 34 1 30 -1 87 87 N 18 30 29.98 1015 2 3 0.02 0.51
10:53 pm 22:53 Cloudy with Light Snow 33 0.6 31 -0.6 92 92 N 17 28 29.94 1014 3 4 0.02 0.51
11:01 pm 23:01 Cloudy with Light Snow 33 0.6 31 -0.6 92 92 N 17 28 29.98 1015 5 8 0.00 0.00
11:08 pm 23:08 Cloudy with Light Snow 33 0.6 31 -0.6 92 92 N 15 24 29.99 1016 3 4 0.01 0.25
11:19 pm 23:19 Cloudy with Light Snow 32 0 31 -0.6 96 96 N 16 26 30.00 1016 1 2 0.01 0.25
11:31 pm 23:31 Cloudy with Light Snow 32 0 31 -0.6 96 96 N 13 20 30.01 1016 1 2 0.01 0.25
11:38 pm 23:38 Cloudy with Light Snow 32 0 31 -0.6 96 96 N 13 20 30.01 1016 1 2 0.01 0.25
11:53 pm 23:53 Cloudy with Light Snow 33 0.6 31 -0.6 92 92 N 12 19 29.97 1015 3 4 0.02 0.51

Powered by AerisWeather